Weather History for KSGU - February, 2013

Change the Weather History Date:

Saturday, February 23, 2013

  Actual Average Record
Temperature  
Mean Temperature 42 °F -  
Max Temperature 51 °F 62 °F 76 °F (1946)
Min Temperature 32 °F 34 °F 19 °F (1955)
Degree Days  
Heating Degree Days 24    
Moisture  
Dew Point 21 °F    
Average Humidity 49    
Maximum Humidity 75    
Minimum Humidity 20    
Precipitation  
Precipitation 0.00 in - - ()
Sea Level Pressure  
Sea Level Pressure 30.01 in    
Wind  
Wind Speed 6 mph (NW)    
Max Wind Speed 29 mph    
Max Gust Speed 36 mph    
Visibility 10 miles    
Events      
Averages and records for this station are not official NWS values.
T = Trace of Precipitation, MM = Missing Value Source: NWS Daily Summary

Daily Weather History Graph

Daily Weather History Graph

Search for Another Location

Airport or City:

Trip Planner

Search our weather history database for the weather conditions in past years. The results will help you decide how hot, cold, wet, or windy it might be!

Date:

Astronomy

Feb. 23, 2013 Rise Set
Actual Time 7:12 AM MST 6:22 PM MST
Civil Twilight 6:46 AM MST 6:49 PM MST
Nautical Twilight 6:16 AM MST 7:19 PM MST
Astronomical Twilight 5:46 AM MST 7:49 PM MST
Moon 4:38 PM MST (2/23) 5:36 AM MST (2/23)
Length of Visible Light 12h 02m
Length of Day
11h 10m
Waxing Gibbous, 95% of the Moon is Illuminated
Feb 23
Waxing Gibbous
Feb 25
Full
Mar 4
Last Quarter
Mar 11
New
Mar 19
First Quarter

Hourly Weather History & Observations

Time (MST) Temp. Windchill Dew Point Humidity Pressure Visibility Wind Dir Wind Speed Gust Speed Precip Events Conditions
12:15 AM 37.4 °F 33.8 °F 23.0 °F 56% 30.15 in 10.0 mi SE 4.6 mph - N/A   Clear
12:35 AM 37.4 °F - 23.0 °F 56% 30.15 in 10.0 mi Calm Calm - N/A   Clear
12:55 AM 37.4 °F - 21.2 °F 52% 30.15 in 10.0 mi Calm Calm - N/A   Clear
1:15 AM 35.6 °F - 23.0 °F 60% 30.15 in 10.0 mi Calm Calm - N/A   Clear
1:35 AM 35.6 °F 29.9 °F 23.0 °F 60% 30.14 in 10.0 mi ESE 6.9 mph - N/A   Clear
1:55 AM 35.6 °F 30.7 °F 23.0 °F 60% 30.14 in 10.0 mi ESE 5.8 mph - N/A   Clear
2:35 AM 33.8 °F - 23.0 °F 65% 30.13 in 10.0 mi Calm Calm - N/A   Clear
2:55 AM 35.6 °F - 23.0 °F 60% 30.12 in 10.0 mi Calm Calm - N/A   Clear
3:15 AM 35.6 °F - 23.0 °F 60% 30.10 in 10.0 mi Calm Calm - N/A   Clear
3:35 AM 33.8 °F - 23.0 °F 65% 30.09 in 10.0 mi Calm Calm - N/A   Clear
3:55 AM 33.8 °F - 23.0 °F 65% 30.09 in 10.0 mi Calm Calm - N/A   Clear
4:15 AM 33.8 °F - 23.0 °F 65% 30.08 in 10.0 mi Calm Calm - N/A   Clear
4:35 AM 32.0 °F 28.7 °F 24.8 °F 75% 30.07 in 10.0 mi NE 3.5 mph - N/A   Clear
4:55 AM 33.8 °F - 23.0 °F 65% 30.08 in 10.0 mi Calm Calm - N/A   Clear
5:15 AM 33.8 °F 28.6 °F 23.0 °F 65% 30.07 in 10.0 mi SSE 5.8 mph - N/A   Clear
5:35 AM 33.8 °F 30.8 °F 24.8 °F 70% 30.07 in 10.0 mi SSW 3.5 mph - N/A   Partly Cloudy
5:55 AM 33.8 °F - 24.8 °F 70% 30.07 in 10.0 mi Calm Calm - N/A   Partly Cloudy
6:15 AM 33.8 °F 28.6 °F 24.8 °F 70% 30.06 in 10.0 mi SSW 5.8 mph - N/A   Clear
6:35 AM 33.8 °F - 24.8 °F 70% 30.06 in 10.0 mi Calm Calm - N/A   Mostly Cloudy
6:55 AM 32.0 °F 27.5 °F 24.8 °F 75% 30.04 in 10.0 mi SSE 4.6 mph - N/A   Mostly Cloudy
7:35 AM 32.0 °F 25.6 °F 23.0 °F 69% 30.03 in 10.0 mi North 6.9 mph - N/A   Clear
7:55 AM 33.8 °F 29.6 °F 24.8 °F 70% 30.04 in 10.0 mi North 4.6 mph - N/A   Clear
8:15 AM 33.8 °F - 24.8 °F 70% 30.04 in 10.0 mi Calm Calm - N/A   Clear
8:35 AM 35.6 °F 32.8 °F 24.8 °F 65% 30.03 in 10.0 mi South 3.5 mph - N/A   Clear
8:55 AM 35.6 °F 32.8 °F 26.6 °F 70% 30.02 in 10.0 mi South 3.5 mph - N/A   Clear
9:15 AM 35.6 °F 32.8 °F 24.8 °F 65% 30.01 in 10.0 mi ESE 3.5 mph - N/A   Clear
9:35 AM 35.6 °F 32.8 °F 24.8 °F 65% 30.00 in 10.0 mi NNW 3.5 mph - N/A   Clear
10:15 AM 37.4 °F - 24.8 °F 60% 29.97 in 10.0 mi Calm Calm - N/A   Clear
10:35 AM 39.2 °F 35.9 °F 24.8 °F 56% 29.95 in 10.0 mi SSW 4.6 mph - N/A   Clear
11:15 AM 42.8 °F 38.0 °F 24.8 °F 49% 29.93 in 10.0 mi NW 8.1 mph - N/A   Clear
11:55 AM 46.4 °F 41.5 °F 23.0 °F 40% 29.93 in 10.0 mi WNW 10.4 mph - N/A   Clear
12:15 PM 48.2 °F - 23.0 °F 37% 29.92 in 10.0 mi West 9.2 mph - N/A   Clear
12:35 PM 50.0 °F - 21.2 °F 32% 29.93 in 10.0 mi WNW 9.2 mph - N/A   Clear
12:55 PM 51.8 °F - 21.2 °F 30% 29.92 in 10.0 mi NW 5.8 mph - N/A   Clear
1:15 PM 51.8 °F - 21.2 °F 30% 29.91 in 10.0 mi West 11.5 mph 18.4 mph N/A   Partly Cloudy
1:35 PM 51.8 °F - 19.4 °F 28% 29.91 in 10.0 mi WSW 16.1 mph - N/A   Mostly Cloudy
1:55 PM 51.8 °F - 19.4 °F 28% 29.89 in 10.0 mi West 24.2 mph 27.6 mph N/A   Overcast
2:15 PM 50.0 °F - 21.2 °F 32% 29.91 in 10.0 mi NW 19.6 mph 27.6 mph N/A   Overcast
2:35 PM 48.2 °F - 21.2 °F 34% 29.93 in 10.0 mi NW 28.8 mph 35.7 mph N/A   Overcast
2:55 PM 46.4 °F 38.5 °F 24.8 °F 43% 29.93 in 10.0 mi NNW 21.9 mph 35.7 mph N/A   Overcast
3:15 PM 46.4 °F 41.9 °F 23.0 °F 40% 29.92 in 10.0 mi NW 9.2 mph - N/A   Overcast
4:15 PM 46.4 °F 40.7 °F 17.6 °F 32% 29.91 in 10.0 mi West 12.7 mph - N/A   Scattered Clouds
4:35 PM 46.4 °F 40.7 °F 17.6 °F 32% 29.89 in 10.0 mi WSW 12.7 mph - N/A   Clear
4:55 PM 46.4 °F 39.8 °F 17.6 °F 32% 29.89 in 10.0 mi WSW 16.1 mph - N/A   Partly Cloudy
5:15 PM 48.2 °F - 17.6 °F 30% 29.89 in 10.0 mi SW 13.8 mph - N/A   Scattered Clouds
5:55 PM 48.2 °F - 15.8 °F 27% 29.90 in 10.0 mi West 9.2 mph - N/A   Partly Cloudy
6:15 PM 48.2 °F - 14.0 °F 25% 29.90 in 10.0 mi NW 15.0 mph 18.4 mph N/A   Scattered Clouds
6:35 PM 48.2 °F - 8.6 °F 20% 29.91 in 10.0 mi NNW 13.8 mph 23.0 mph N/A   Scattered Clouds
6:55 PM 44.6 °F 38.8 °F 15.8 °F 31% 29.93 in 10.0 mi NE 11.5 mph - N/A   Mostly Cloudy
7:15 PM 42.8 °F 36.2 °F 19.4 °F 39% 29.95 in 10.0 mi NNE 12.7 mph - N/A   Overcast
7:35 PM 42.8 °F 39.3 °F 21.2 °F 42% 29.96 in 10.0 mi East 5.8 mph - N/A   Overcast
7:55 PM 41.0 °F 37.1 °F 21.2 °F 45% 29.98 in 10.0 mi NNW 5.8 mph - N/A   Mostly Cloudy
8:15 PM 41.0 °F 35.2 °F 21.2 °F 45% 29.98 in 10.0 mi NNE 9.2 mph - N/A   Clear
8:35 PM 41.0 °F 39.0 °F 19.4 °F 42% 29.98 in 10.0 mi SE 3.5 mph - N/A   Clear
9:35 PM 39.2 °F 33.6 °F 17.6 °F 42% 30.01 in 10.0 mi SSE 8.1 mph - N/A   Partly Cloudy
9:55 PM 39.2 °F 35.9 °F 17.6 °F 42% 30.02 in 10.0 mi East 4.6 mph - N/A   Scattered Clouds
10:15 PM 39.2 °F 32.0 °F 15.8 °F 39% 30.02 in 10.0 mi East 11.5 mph 19.6 mph N/A   Scattered Clouds
10:35 PM 39.2 °F 35.0 °F 19.4 °F 45% 30.03 in 10.0 mi North 5.8 mph - N/A   Mostly Cloudy
10:55 PM 39.2 °F 35.0 °F 17.6 °F 42% 30.04 in 10.0 mi NNE 5.8 mph - N/A   Overcast
11:15 PM 39.2 °F 30.5 °F 15.8 °F 39% 30.05 in 10.0 mi NNE 16.1 mph 24.2 mph N/A   Overcast
11:35 PM 39.2 °F 31.2 °F 14.0 °F 36% 30.05 in 10.0 mi NE 13.8 mph - N/A   Overcast
11:55 PM 39.2 °F 29.8 °F 12.2 °F 33% 30.05 in 10.0 mi NE 18.4 mph 24.2 mph N/A   Mostly Cloudy